Flag for Germany Weather past 2 weeks in Garmisch-Partenkirchen, Bavaria, Germany

Now
41 °F

Partly cloudy.


Feels Like: 41 °F
Forecast: 43 / 44 °F
Wind: 1 mph from North

Location: Innsbruck-Flughafen

Current Time: Mar 29, 2015 at 6:36:57 AM

Latest Report: Mar 29, 2015 at 5:50 AM


Visibility: N/A

Pressure: 30.01 "Hg

Humidity: 76%

Dew point: 34 °F

Location of Garmisch-PartenkirchenLocation

Historic Weather in Garmisch-Partenkirchen — Graph

°F

Garmisch-Partenkirchen temperature yesterday

Maximum temperature yesterday: 59 °F (at 4:20 PM)
Minimum temperature yesterday: 36 °F (at 5:50 AM)
Average temperature yesterday: 46 °F

Past Weeks' High & Low Weather Summary

 TemperatureHumidityPressure
High66 °F (Mar 18, 2:20 PM)100% (Mar 22, 3:50 AM)30.30 "Hg (Mar 22, 3:50 AM)
Low27 °F (Mar 14, 4:20 AM)28% (Mar 18, 2:20 PM)29.50 "Hg (Mar 25, 3:50 PM)
Average46 °F68%30.03 "Hg
* Reported Mar 14 3:20 AM — Mar 29 4:50 AM, Garmisch-Partenkirchen, Weather by CustomWeather, © 2015

Note: Actual official high and low records may vary slightly from our data, if they occured in-between our weather recording intervals... More about our weather records

Advertising

Garmisch-Partenkirchen weather history for previous 24 hours

 ConditionsComfort  
Time TempWeatherWind HumidityBarometerVisibility
4:50 AM
Sun, Mar 29
43 °FPartly cloudy.1 mph71%30.01 "HgN/A
4:20 AM43 °FPartly cloudy.1 mph76%30.01 "HgN/A
3:50 AM45 °FPartly cloudy.1 mph71%30.01 "HgN/A
3:20 AM45 °FPassing clouds.1 mph71%30.01 "HgN/A
1:50 AM45 °FPassing clouds.2 mph71%30.01 "HgN/A
1:20 AM45 °FPassing clouds.1 mph66%30.01 "HgN/A
12:50 AM45 °FPassing clouds.2 mph71%30.04 "HgN/A
12:20 AM45 °FLight rain. Passing clouds.1 mph71%30.04 "HgN/A
11:50 PM
Sat, Mar 28
46 °FPassing clouds.1 mph62%30.04 "HgN/A
11:20 PM46 °FPartly cloudy.2 mph62%30.04 "HgN/A
10:50 PM46 °FMostly cloudy.2 mph62%30.04 "HgN/A
10:20 PM45 °FMostly cloudy.3 mph66%30.04 "HgN/A
9:50 PM46 °FMostly cloudy.2 mph62%30.04 "HgN/A
9:20 PM46 °FMostly cloudy.3 mph62%30.04 "HgN/A
8:50 PM46 °FPassing clouds.2 mph66%30.04 "HgN/A
8:20 PM46 °FPassing clouds.1 mph62%30.04 "HgN/A
7:50 PM46 °FPassing clouds.2 mph57%30.04 "HgN/A
7:20 PM48 °FPassing clouds.5 mph50%30.01 "HgN/A
6:50 PM50 °FPassing clouds.3 mph47%30.01 "HgN/A
6:20 PM52 °FPassing clouds.5 mph41%30.01 "HgN/A
5:50 PM57 °FPassing clouds.7 mph31%29.98 "HgN/A
5:20 PM57 °FPassing clouds.7 mph31%29.98 "HgN/A
4:50 PM57 °FPassing clouds.8 mph31%29.98 "HgN/A
4:20 PM59 °FPassing clouds.7 mph34%29.98 "HgN/A
3:50 PM57 °FPassing clouds.7 mph33%30.01 "HgN/A
3:20 PM57 °FPassing clouds.7 mph33%30.01 "HgN/A
2:50 PM57 °FPassing clouds.3 mph36%30.01 "HgN/A
2:20 PM57 °FPassing clouds.5 mph36%30.04 "HgN/A
1:50 PM55 °FPassing clouds.6 mph36%30.07 "HgN/A
1:20 PM54 °FPassing clouds.3 mph41%30.07 "HgN/A
12:50 PM54 °FPassing clouds.2 mph44%30.09 "HgN/A
12:20 PM52 °FPassing clouds.5 mph47%30.09 "HgN/A
11:50 AM50 °FPassing clouds.6 mph47%30.12 "HgN/A
11:20 AM50 °FPassing clouds.5 mph50%30.15 "HgN/A
10:50 AM48 °FPassing clouds.5 mph50%30.15 "HgN/A
10:20 AM46 °FPassing clouds.2 mph57%30.18 "HgN/A
9:50 AM46 °FPassing clouds.3 mph62%30.18 "HgN/A
9:20 AM45 °FPassing clouds.2 mph71%30.21 "HgN/A
8:50 AM43 °FPassing clouds.2 mph76%30.21 "HgN/A
8:20 AM39 °FPassing clouds.3 mph87%30.21 "HgN/A
7:50 AM39 °FPassing clouds.3 mph81%30.24 "HgN/A
7:20 AM37 °FPassing clouds.5 mph87%30.24 "HgN/A
6:50 AM36 °FScattered clouds.3 mph93%30.24 "HgN/A
6:20 AM36 °FScattered clouds.5 mph93%30.24 "HgN/A
Weather by CustomWeather, © 2015

See weather overviewHow to use our weather pages